Weather History for Dansville, NY

Change the Weather History Date:

Tuesday, May 21, 2013

  Actual Average Record
Temperature  
Mean Temperature 77 °F -  
Max Temperature 91 °F 71 °F 91 °F (1959)
Min Temperature 64 °F 47 °F 30 °F (1967)
Cooling Degree Days 12    
Growing Degree Days 27 (Base 50)    
Moisture  
Dew Point 64 °F    
Average Humidity 66    
Maximum Humidity 93    
Minimum Humidity 38    
Precipitation  
Precipitation 0.09 in - - ()
Sea Level Pressure  
Sea Level Pressure 29.85 in    
Wind  
Wind Speed 6 mph (South)    
Max Wind Speed 14 mph    
Max Gust Speed -    
Visibility 10 miles    
Events Rain , Thunderstorm    
Averages and records for this station are not official NWS values.
T = Trace of Precipitation, MM = Missing Value Source: NWS Daily Summary

Daily Weather History Graph

Daily Weather History Graph

Search for Another Location

Airport:

Trip Planner

Search our weather history database for the weather conditions in past years. The results will help you decide how hot, cold, wet, or windy it might be!

Date:

Astronomy

May. 21, 2013 Rise Set
Actual Time 5:43 AM EDT 8:32 PM EDT
Civil Twilight 5:10 AM EDT 9:05 PM EDT
Nautical Twilight 4:28 AM EDT 9:47 PM EDT
Astronomical Twilight 3:40 AM EDT 10:35 PM EDT
Moon 4:39 PM EDT (5/21) 3:15 AM EDT (5/21)
Length of Visible Light 15h 55m
Length of Day
14h 49m
Waxing Gibbous, 84% of the Moon is Illuminated
May 21
Waxing Gibbous
May 25
Full
May 31
Last Quarter
Jun 8
New
Jun 16
First Quarter

Hourly Weather History & Observations

Time (EDT) Temp. Heat Index Dew Point Humidity Pressure Visibility Wind Dir Wind Speed Gust Speed Precip Events Conditions
12:54 AM 72.0 °F - 63.0 °F 73% 29.92 in 10.0 mi ESE 5.8 mph - N/A   Scattered Clouds
1:54 AM 72.0 °F - 61.0 °F 68% 29.94 in 10.0 mi NW 13.8 mph - N/A   Mostly Cloudy
2:54 AM 66.9 °F - 60.1 °F 79% 29.93 in 10.0 mi Calm Calm - N/A   Clear
3:54 AM 64.9 °F - 60.1 °F 84% 29.94 in 10.0 mi Calm Calm - N/A   Mostly Cloudy
4:54 AM 64.0 °F - 60.1 °F 87% 29.93 in 10.0 mi SSE 3.5 mph - N/A   Clear
5:54 AM 66.0 °F - 61.0 °F 84% 29.93 in 10.0 mi SSE 6.9 mph - N/A   Mostly Cloudy
6:54 AM 66.9 °F - 61.0 °F 81% 29.94 in 10.0 mi ESE 6.9 mph - N/A   Clear
7:54 AM 71.1 °F - 64.0 °F 78% 29.94 in 10.0 mi SE 6.9 mph - N/A   Clear
8:54 AM 75.9 °F - 66.0 °F 71% 29.93 in 10.0 mi ESE 11.5 mph - N/A   Clear
9:54 AM 81.0 °F 83.0 °F 66.0 °F 60% 29.91 in 10.0 mi Variable 3.5 mph - N/A   Clear
10:54 AM 82.0 °F 84.5 °F 66.9 °F 60% 29.90 in 10.0 mi SW 6.9 mph - N/A   Scattered Clouds
11:54 AM 84.9 °F 86.6 °F 64.9 °F 51% 29.89 in 10.0 mi Variable 3.5 mph - N/A   Mostly Cloudy
12:54 PM 86.0 °F 87.6 °F 64.9 °F 49% 29.85 in 10.0 mi South 8.1 mph - N/A   Scattered Clouds
1:54 PM 87.1 °F 87.5 °F 62.1 °F 43% 29.83 in 10.0 mi Calm Calm - N/A   Mostly Cloudy
2:54 PM 90.0 °F 90.6 °F 63.0 °F 40% 29.81 in 10.0 mi Variable 5.8 mph - N/A   Scattered Clouds
3:54 PM 89.1 °F 89.0 °F 61.0 °F 39% 29.80 in 10.0 mi SSW 9.2 mph - N/A   Mostly Cloudy
4:54 PM 88.0 °F 87.6 °F 60.1 °F 39% 29.78 in 10.0 mi SSW 6.9 mph - N/A Thunderstorm Partly Cloudy
5:14 PM 89.6 °F 89.5 °F 60.8 °F 38% 29.76 in 10.0 mi Variable 5.8 mph - N/A   Partly Cloudy
5:54 PM 86.0 °F 87.6 °F 64.9 °F 49% 29.77 in 10.0 mi NNW 5.8 mph - N/A   Scattered Clouds
6:54 PM 84.9 °F 86.1 °F 64.0 °F 49% 29.76 in 10.0 mi WNW 4.6 mph - N/A   Scattered Clouds
7:04 PM 84.2 °F 85.6 °F 64.4 °F 51% 29.76 in 10.0 mi WNW 6.9 mph - 0.00 in Rain , Thunderstorm Light Rain
7:54 PM 75.9 °F - 64.9 °F 69% 29.78 in 10.0 mi Calm Calm - 0.00 in Thunderstorm Scattered Clouds
8:12 PM 75.2 °F - 66.2 °F 73% 29.77 in 10.0 mi South 4.6 mph - N/A   Scattered Clouds
8:32 PM 73.4 °F - 66.2 °F 78% 29.77 in 10.0 mi Calm Calm - N/A Thunderstorm Scattered Clouds
8:54 PM 73.9 °F - 64.9 °F 73% 29.79 in 3.0 mi Calm Calm - 0.09 in Rain , Thunderstorm Light Thunderstorms and Rain
9:54 PM 71.1 °F - 69.1 °F 93% 29.83 in 10.0 mi South 4.6 mph - 0.00 in   Overcast
10:54 PM 70.0 °F - 68.0 °F 93% 29.82 in 10.0 mi SSE 4.6 mph - N/A   Partly Cloudy
11:54 PM 70.0 °F - 66.9 °F 90% 29.83 in 10.0 mi South 5.8 mph - N/A   Mostly Cloudy